Regional Weather Roundup
Issued by NWS Jackson, KY

Home | Current Version | Previous Version | Graphics & Text | Print | Product List | Glossary On
Versions: 1 2 3 4 5 6 7 8 9 10 11 12 13 14 15 16 17 18 19 20 21 22 23 24 25 26 27 28 29 30 31 32 33 34 35 36 37 38 39 40 41 42 43 44 45 46 47 48 49 50
000
ASUS43 KJKL 100005
RWRJKL

EAST KENTUCKY HOURLY WEATHER ROUNDUP
NATIONAL WEATHER SERVICE JACKSON KY
800 PM EDT WED JUL 09 2014

NOTE: "FAIR" INDICATES FEW OR NO CLOUDS BELOW 12,000 FEET WITH
NO SIGNIFICANT WEATHER AND/OR OBSTRUCTIONS TO VISIBILITY.

* THESE REPORTS ARE NOT UNDER NWS QUALITY CONTROL AND MAY NOT
  REPORT WEATHER SUCH AS PRECIPITATION AND FOG.

KYZ079-080-083-085-087-088-110-112-115-119-120-100100
...EASTERN KENTUCKY...

CITY           SKY/WX    TMP DP  RH WIND       PRES   REMARKS
JACKSON        CLEAR     80  59  48 CALM      29.99S
6HR MIN TEMP:  78; 6HR MAX TEMP:  85;

LONDON         CLEAR     82  60  47 NW5       30.00R
6HR MIN TEMP:  82; 6HR MAX TEMP:  87;

SOMERSET*      SUNNY     81  55  41 N5        30.00R
MONTICELLO*    SUNNY     82  65  56 NW6       30.00R
6HR MIN TEMP:  82; 6HR MAX TEMP:  87;

MIDDLESBORO*   MOCLDY    79  68  70 S3        30.01R
6HR MIN TEMP:  78; 6HR MAX TEMP:  86;

HARLAN APT*    PTCLDY    77  63  61 MISG      30.01R
BLACK MTN*       N/A     66  63  88 CALM        N/A
PIKEVILLE APT* CLEAR     77  66  69 CALM      30.00R
BIG SANDY*     CLEAR     80  64  58 CALM      29.99R
6HR MIN TEMP:  76; 6HR MAX TEMP:  83;

MOREHEAD APT*    N/A     81  57  44 NW6       29.99R
$$

KYZ035-036-041-042-044-050-067-078-099-100100
...CENTRAL KENTUCKY...

CITY           SKY/WX    TMP DP  RH WIND       PRES   REMARKS
MT STERLING*   MOSUNNY   81  61  50 CALM      29.99R
FLEMING/MASON* SUNNY     81  58  45 W7        29.98R
DANVILLE*      SUNNY     81  57  44 NW5       30.00R
RICHMOND*      SUNNY     81  54  39 NW8       29.98R
LEXINGTON      SUNNY     82  58  43 W5        29.98R
6HR MIN TEMP:  82; 6HR MAX TEMP:  87;

FRANKFORT      SUNNY     81  57  43 W6        29.96R
6HR MIN TEMP:  81; 6HR MAX TEMP:  85;

$$

KYZ091>093-OHZ055-061-077-WVZ005-015-034-035-042-100100
...SOUTHERN OHIO/WEST VIRGINIA...

CITY           SKY/WX    TMP DP  RH WIND       PRES   REMARKS
COVINGTON      MOSUNNY   79  58  48 W12       29.97R
COLUMBUS       PTCLDY    80  57  45 W14       29.94R
DAYTON         MOSUNNY   78  59  51 NW10      29.97R
WILMINGTON     SUNNY     78  57  48 W10       29.96R
HUNTINGTON     PTCLDY    82  59  45 NW7       29.94R
CHARLESTON     PTCLDY    80  63  55 N3        29.95R
PINEVILLE*     PTCLDY    74  71  90 MISG      30.06R
BECKLEY        PTCLDY    74  62  66 N6        30.05R
BLUEFIELD      PTCLDY    74  61  63 W3        30.08R
$$

VAZ002-007-008-TNZ017-027-036-066-071-100100
...SOUTHWEST VIRGINIA/EAST TENNESSEE...

CITY           SKY/WX    TMP DP  RH WIND       PRES   REMARKS
WISE*          PTCLDY    73  61  64 CALM      30.08S
JONESVILLE*    PTCLDY    77  68  73 CALM      30.04R
ABINGDON*      MOCLDY    77  66  68 W3        30.05R
BRISTOL        MOCLDY    78  64  61 SW7       30.02R
KNOXVILLE      MOCLDY    69  67  93 SE6       30.01R
OAK RIDGE      CLOUDY    73  69  87 S3        30.03R
CROSSVILLE     MOSUNNY   75  69  81 W3        30.06R
NASHVILLE      PTSUNNY   84  65  52 NW7       29.97S
$$

...KEY TO REMARKS...
VSB - VISIBILITY IN MILES
WCI - WIND CHILL INDEX
HX  - HEAT INDEX

$$



USA.gov is the U.S. government's official web portal to all federal, state and local government web resources and services.